Simultaneous Nadir Overpasses (SNOs) Predictions

Prediction of SNOs between GOES-17 and NOAA-19 Satellite Orbit:

Table of predicted SNOs for the next 14.0 days since TLE Epoch: 9/12/2025
Index Date Time (GOES-17) GOES-17 Lat,Lon NOAA-19 Lat,Lon Distance(km) Time Diff (sec)
1 09/13/2025 15:44:15 0.15, -89.53 -0.31, -87.47 234.57 80
2 09/16/2025 04:05:35 -0.18, -89.47 -0.75, -91.92 280.16 80
3 09/17/2025 03:50:15 -0.18, -89.47 -0.01, -88.85 70.76 80
4 09/18/2025 03:37:35 -0.17, -89.47 0.66, -85.77 421.83 80
5 09/19/2025 16:11:16 0.20, -89.54 1.04, -93.23 420.98 80
6 09/20/2025 15:58:37 0.19, -89.55 0.31, -90.16 69.46 80
7 09/21/2025 15:43:16 0.18, -89.56 -0.37, -87.08 282.25 80
8 09/24/2025 04:04:36 -0.20, -89.53 -0.65, -91.54 229.20 80
9 09/25/2025 03:49:16 -0.20, -89.54 0.04, -88.46 122.82 80
10 09/26/2025 03:36:36 -0.20, -89.55 0.78, -85.40 474.91 80
